Home > Time Zones > World Clock > Weather > Togo > Lome > Past weeks

Flag for Togo Weather past 2 weeks in Lome, Togo

Now
84 °F

Scattered clouds.


Feels Like: 92 °F
Forecast: 76 / 83 °F
Wind: 9 mph from South

Location: Lome Airport

Current Time: Oct 2, 2014 at 12:38:48 PM

Latest Report: Oct 2, 2014 at 12:00 PM


Visibility: N/A

Pressure: 29.98 "Hg

Humidity: 74%

Dew point: 75 °F

Location of LomeLocation

Historic Weather in Lome — Graph

°F

Lome temperature yesterday

Maximum temperature yesterday: 84 °F (at 12:00 PM)
Minimum temperature yesterday: 75 °F (at 6:00 AM)
Average temperature yesterday: 78 °F

Past Weeks' High & Low Weather Summary

 TemperatureHumidityPressure
High88 °F (Sep 26, 11:00 AM)100% (Sep 19, 1:00 AM)30.01 "Hg (Sep 19, 1:00 AM)
Low73 °F (Sep 26, 4:02 PM)66% (Sep 26, 11:00 AM)29.83 "Hg (Sep 17, 3:00 PM)
Average79 °F88%29.93 "Hg
* Reported Sep 17 11:00 AM — Oct 2 11:00 AM, Lome, Weather by CustomWeather, © 2014

Note: Actual official high and low records may vary slightly from our data, if they occured in-between our weather recording intervals... More about our weather records

Advertising

Lome weather history for previous 24 hours

 ConditionsComfort  
Time TempWeatherWind HumidityBarometerVisibility
11:00 AM
Oct 2
84 °FPassing clouds.9 mph74%29.98 "HgN/A
10:00 AM82 °FScattered clouds.8 mph74%30.01 "HgN/A
9:00 AM81 °FScattered clouds.9 mph84%30.01 "HgN/A
8:00 AM79 °FScattered clouds.7 mph89%30.01 "HgN/A
7:00 AM75 °FScattered clouds.2 mph100%29.98 "Hg5 mi
6:00 AM75 °FScattered clouds.2 mph100%29.95 "Hg5 mi
5:00 AM75 °FPassing clouds.2 mph100%29.95 "HgN/A
4:00 AM75 °FPassing clouds.2 mph100%29.95 "HgN/A
3:00 AM77 °FPassing clouds.5 mph94%29.95 "HgN/A
2:00 AM75 °FPassing clouds.1 mph100%29.95 "HgN/A
1:00 AM75 °FPassing clouds.2 mph100%29.95 "HgN/A
12:00 AM77 °FPassing clouds.2 mph94%29.98 "HgN/A
11:00 PM
Oct 1
77 °FPassing clouds.2 mph89%29.98 "HgN/A
10:00 PM77 °FPassing clouds.5 mph89%29.98 "HgN/A
9:00 PM77 °FPassing clouds.6 mph94%29.98 "HgN/A
8:00 PM77 °FPassing clouds.9 mph94%29.95 "HgN/A
7:00 PM77 °FPassing clouds.10 mph89%29.92 "HgN/A
6:00 PM77 °FPassing clouds.9 mph94%29.89 "HgN/A
5:00 PM79 °FScattered clouds.13 mph89%29.86 "HgN/A
4:00 PM81 °FScattered clouds.14 mph84%29.86 "HgN/A
3:00 PM79 °FScattered clouds.15 mph89%29.89 "HgN/A
2:51 PM79 °FScattered clouds.15 mph89%29.89 "HgN/A
2:00 PM79 °FDrizzle. Partly sunny.14 mph89%29.89 "Hg5 mi
1:00 PM82 °FScattered clouds.15 mph84%29.92 "HgN/A
12:00 PM84 °FScattered clouds.12 mph74%29.95 "HgN/A
Weather by CustomWeather, © 2014

See weather overviewHow to use our weather pages